Wind_Speed
11 10 10 9 9 8 7 6 5 4 3 2 1 1 2 3 5 6 7 8 8 8 8 8 8 8 7 6 5 5 5 4 4 4 5 3 2 2 5 6 6 6 5 5 5 8 10 6 3 4 5 6 4 4 5 5 4 3 3 4 1 3 3 4 5 5 3 3 2 1 5 7 5 5 10 10 10 12 9 5 5 6 6 8 8 8 18 18
12 11 10 9 8 8 7 6 5 5 5 4 3 2 2 2 3 5 6 7 7 7 7 7 7 7 7 7 6 5 3 3 4 3 1 4 6 8 8 7 5 4 4 6 7 8 8 4 3 6 6 6 4 3 4 4 6 4 3 3 3 5 3 2 5 6 3 4 3 3 5 6 5 5 7 5 5 8 7 6 6 7 8 9 11 13 17 17
13 12 11 9 8 7 7 6 6 6 6 5 5 4 3 3 2 3 4 5 5 5 5 5 5 6 7 7 6 4 4 6 4 2 6 9 9 8 6 3 2 2 3 5 6 6 5 4 5 6 7 5 4 4 3 3 6 3 4 3 4 6 3 1 3 5 5 6 5 4 4 5 5 4 4 5 5 4 4 6 7 10 14 14 14 16 17 16
13 12 10 9 8 7 7 7 6 6 6 6 6 5 4 3 2 2 3 3 3 3 3 3 3 4 6 6 5 4 5 7 2 5 7 9 8 7 4 2 2 1 2 4 4 4 4 4 5 6 7 4 3 4 2 3 4 2 5 3 5 6 3 2 5 6 6 6 5 5 5 5 4 2 3 8 5 2 6 10 8 9 16 17 17 18 16 14
13 12 10 9 8 8 7 7 7 7 7 7 6 5 3 2 0 1 2 2 2 2 2 3 3 3 5 6 5 5 5 4 2 6 6 7 7 6 5 3 2 1 2 3 2 2 3 3 4 5 5 3 2 2 1 3 5 4 1 3 7 9 4 5 7 6 6 4 4 5 4 3 2 1 3 7 6 3 3 7 8 8 13 15 16 17 16 14
14 13 11 9 8 7 7 7 7 7 7 7 6 5 4 2 1 1 2 2 2 2 1 2 2 2 4 4 4 5 4 2 3 5 5 6 7 6 5 5 3 2 2 3 2 2 3 3 4 4 4 2 1 2 1 2 5 4 2 2 9 7 3 8 8 6 5 3 3 3 3 3 3 2 2 2 5 3 2 2 7 9 11 13 14 16 15 14
14 13 11 8 6 6 6 6 7 7 7 6 6 5 4 3 2 2 2 2 1 1 1 1 1 2 2 3 3 6 6 1 2 4 5 4 6 6 5 5 5 4 3 4 3 3 3 4 5 5 4 3 1 1 3 3 4 5 1 2 7 4 3 9 7 5 3 1 3 3 3 3 4 2 2 2 5 4 1 1 7 12 14 14 14 14 13 12
14 13 11 8 5 5 5 6 6 6 6 6 5 5 5 4 4 3 2 1 0 0 0 1 1 1 1 2 4 7 8 3 1 5 6 3 4 5 5 5 5 4 3 4 4 4 3 5 6 5 3 2 2 1 3 5 5 4 3 3 4 4 5 9 6 5 3 3 4 3 2 2 3 3 1 4 6 4 1 2 10 16 16 15 14 13 12 12
13 13 11 8 5 4 4 4 5 5 5 5 5 5 4 5 4 3 2 1 0 0 0 1 1 1 1 3 6 7 5 1 2 5 7 5 2 3 4 4 4 3 2 2 3 3 2 5 5 4 3 3 3 2 2 4 2 1 5 6 5 4 7 9 6 6 5 5 6 3 2 2 3 2 2 4 6 6 3 6 14 17 17 16 14 14 13 14
13 12 11 8 6 3 3 3 4 4 4 5 5 5 5 5 5 4 2 1 0 0 0 1 1 1 1 5 6 3 1 2 2 3 7 9 4 2 2 4 5 4 3 2 2 2 3 5 4 7 6 4 4 3 3 4 4 6 8 7 5 3 6 7 7 6 5 5 7 5 0 1 3 1 2 2 4 8 7 12 17 17 17 16 16 16 15 14
12 12 11 9 7 4 3 2 3 4 4 4 5 5 5 5 6 5 3 2 1 0 0 1 1 2 4 7 5 2 2 1 2 2 5 8 6 4 3 3 4 5 4 1 2 2 4 4 4 6 4 3 4 3 4 6 7 10 11 7 4 1 4 4 5 5 3 4 8 6 1 1 2 2 3 1 4 9 12 17 19 18 18 18 17 17 16 15
12 12 11 9 7 5 4 3 3 4 4 4 5 6 6 5 6 6 4 3 1 1 1 1 2 4 6 9 8 6 3 1 1 1 4 6 6 6 4 3 4 6 5 3 4 3 4 3 2 3 3 6 4 3 4 5 6 9 9 5 4 6 0 4 4 5 4 3 7 6 2 5 3 2 2 2 7 11 15 19 20 20 19 19 19 18 18 16
12 11 10 10 8 6 5 4 4 4 4 5 5 6 6 6 6 6 4 3 2 2 2 3 5 6 8 9 7 5 4 2 1 3 5 7 8 7 5 5 5 6 6 5 5 3 3 3 3 5 6 6 3 3 6 4 5 6 4 4 2 6 2 2 2 4 5 2 5 5 0 5 6 4 3 4 12 14 17 19 20 21 20 21 20 20 20 18
12 11 10 9 8 7 6 5 5 4 5 5 6 7 7 6 5 5 4 3 3 2 3 5 6 7 8 8 5 6 6 4 2 5 6 7 8 7 5 5 5 5 4 5 5 3 3 4 6 8 7 5 5 7 5 5 5 2 2 3 2 2 2 5 2 5 5 2 4 3 2 5 7 5 3 6 13 15 18 20 21 22 22 23 22 22 22 20
11 11 10 9 8 7 6 6 5 5 6 6 7 7 7 6 6 5 4 3 3 4 4 5 6 7 9 9 5 6 7 4 2 6 7 7 6 5 5 4 2 2 3 4 3 3 3 4 6 6 4 4 6 6 3 4 4 3 1 2 3 2 4 7 3 4 4 1 2 4 2 5 7 6 3 8 12 14 17 18 20 23 23 24 24 24 24 22
11 11 10 9 8 7 7 6 6 6 7 7 8 7 7 6 5 4 4 4 4 5 4 5 6 6 7 6 3 4 5 3 2 8 9 7 5 3 4 3 1 2 4 3 2 3 4 4 5 5 4 4 5 5 5 4 4 4 2 1 2 2 3 5 3 1 2 2 2 4 3 3 5 6 4 7 10 13 15 18 20 23 25 26 26 25 25 24
11 10 10 9 8 7 7 7 7 7 7 7 7 6 6 5 3 4 4 4 5 5 5 5 5 6 6 3 4 6 5 2 3 9 9 6 4 2 2 1 1 2 3 2 3 4 4 4 4 4 5 4 3 4 5 3 3 4 3 2 1 0 1 3 4 3 4 3 1 4 2 5 6 6 5 4 5 9 15 17 19 22 25 25 24 25 25 25
11 10 10 9 8 8 7 7 7 7 7 7 6 6 6 4 3 4 3 5 5 4 5 6 4 3 5 3 5 8 4 1 3 8 9 6 4 2 1 1 3 3 2 4 4 4 3 3 3 2 4 4 3 5 4 2 2 1 1 2 1 1 0 3 4 2 5 3 1 2 1 7 9 9 13 13 6 6 12 14 16 19 21 22 22 24 25 26
10 9 9 8 8 8 8 8 8 8 7 7 6 6 7 6 2 3 4 6 6 4 3 4 4 2 3 3 6 7 4 1 3 6 9 7 4 3 2 2 3 2 3 3 4 5 4 4 4 3 1 1 1 5 6 7 7 6 4 4 3 1 3 4 5 4 3 3 2 3 4 7 8 8 13 15 9 8 13 14 17 19 17 18 20 22 24 26
10 9 8 8 7 7 8 9 8 8 8 7 6 5 8 9 3 2 9 12 10 8 7 8 7 7 7 7 5 5 7 3 3 5 8 7 6 4 2 2 2 4 4 1 1 4 4 4 1 3 5 5 5 5 7 5 6 6 5 4 4 3 4 4 4 5 2 2 2 3 4 6 8 8 12 16 12 11 14 15 17 18 17 17 17 20 22 24
10 8 7 6 6 6 7 8 8 8 8 8 9 8 8 10 4 5 13 13 9 8 10 11 12 14 13 10 7 8 9 5 4 5 7 6 6 4 2 0 2 4 3 1 1 2 5 3 3 7 7 5 4 5 7 7 6 5 5 3 1 2 4 5 3 5 4 2 2 2 3 7 8 8 13 14 10 10 13 13 14 14 15 16 16 17 20 23
10 8 6 4 4 5 5 7 6 7 8 8 10 11 9 9 5 6 10 10 12 11 9 10 13 16 14 11 11 10 7 4 4 6 8 7 6 4 1 3 4 2 3 3 2 4 4 1 7 6 6 7 5 5 8 7 6 5 4 3 1 2 4 6 4 5 5 2 3 4 4 8 9 9 11 12 9 10 11 12 13 13 13 15 16 17 20 22
10 8 6 3 3 3 4 5 5 5 6 7 9 11 9 7 6 8 7 8 13 12 9 8 11 15 15 13 11 9 6 4 5 6 9 9 6 3 3 5 4 1 3 3 4 3 1 5 5 5 8 9 6 5 8 7 5 4 4 4 2 3 1 2 4 5 4 2 1 3 4 7 7 6 8 10 9 9 10 11 13 13 12 13 15 18 19 22
9 7 5 3 3 3 3 5 4 3 5 6 8 9 7 6 5 8 7 5 7 8 6 5 8 11 13 11 8 7 7 6 5 5 9 12 7 3 3 4 4 1 1 3 7 5 4 6 4 7 5 8 7 3 5 6 2 2 2 5 2 3 4 3 3 4 4 4 3 4 5 6 4 5 6 5 4 6 7 6 6 8 10 11 14 17 19 21
8 6 4 2 2 2 4 4 2 2 2 5 8 9 10 9 6 6 5 2 3 6 4 2 3 5 6 6 6 6 5 7 8 7 7 12 11 4 2 3 2 1 3 5 6 2 5 4 8 8 3 6 8 2 3 5 1 4 4 7 7 5 5 2 2 5 5 5 4 4 4 5 5 4 6 4 3 6 7 6 2 3 7 11 15 18 20 22
8 7 4 4 4 5 6 4 2 2 3 5 8 11 13 11 6 4 3 3 2 4 3 2 0 1 1 3 6 4 0 4 9 11 9 11 11 6 3 2 1 1 4 5 3 2 2 0 5 6 5 5 6 1 5 5 5 2 5 8 7 6 5 4 3 2 2 3 4 3 3 4 6 5 7 5 6 8 7 5 2 3 7 10 15 19 21 23
8 7 6 5 6 6 6 5 4 4 5 7 10 12 13 9 4 2 3 4 3 3 2 0 1 0 1 3 7 6 1 4 4 9 12 11 11 7 3 2 1 1 4 3 0 2 2 3 4 5 6 5 3 3 6 7 7 2 4 6 8 7 6 6 5 3 2 3 4 3 4 2 5 6 6 4 6 8 6 5 5 4 9 11 15 20 23 23
8 7 6 6 6 6 6 5 5 5 7 8 11 13 12 8 4 2 3 4 2 2 1 1 1 1 2 3 10 7 1 2 2 4 11 12 11 6 3 5 5 4 2 4 3 5 1 4 4 6 5 3 5 5 7 10 4 5 4 7 7 6 6 5 6 3 0 2 4 5 2 2 5 6 5 4 3 6 6 6 6 5 9 12 15 20 23 23
10 8 7 6 6 6 5 5 5 5 7 9 12 13 10 7 5 2 4 2 2 2 2 1 2 3 3 2 9 8 3 1 2 2 8 11 10 5 1 5 7 5 1 4 5 6 2 5 8 8 5 5 7 4 9 11 4 4 6 6 5 5 5 4 4 3 3 3 4 6 3 2 4 6 5 2 1 4 6 6 7 7 8 12 15 17 20 22
10 10 9 7 7 6 5 5 4 5 6 9 12 11 7 5 2 4 3 0 1 3 3 2 3 4 4 3 2 6 3 2 2 1 4 5 7 4 1 2 4 5 1 3 2 6 3 2 4 6 5 7 5 2 6 8 5 7 6 6 6 5 5 4 2 3 4 2 6 7 5 3 2 5 4 3 3 4 4 5 7 8 8 13 16 16 18 19
10 10 10 8 7 6 6 5 4 5 7 9 11 8 4 2 3 5 1 2 1 3 5 2 3 6 4 0 2 4 2 3 2 3 3 1 1 1 2 1 1 4 4 5 2 5 4 1 2 5 8 6 6 4 1 2 5 7 4 4 3 3 4 4 4 4 3 3 6 4 4 3 2 5 5 4 6 5 5 5 7 7 8 12 16 16 17 17
9 9 9 9 7 5 5 5 5 6 7 9 11 6 2 3 3 1 2 3 1 2 4 3 3 6 5 2 3 3 2 2 1 3 3 2 1 2 2 4 3 2 4 3 3 5 3 4 3 2 5 8 6 3 3 2 3 4 4 5 2 2 3 3 3 1 2 5 4 2 3 2 4 7 7 7 9 8 8 10 10 10 10 10 13 14 14 15
9 7 7 8 7 4 3 4 6 6 7 9 8 3 5 5 1 2 3 3 1 2 3 3 5 6 3 1 3 3 2 2 2 1 2 2 1 4 4 4 6 3 3 3 1 3 3 5 3 1 3 8 9 5 2 2 3 5 5 5 3 1 1 2 4 1 3 5 3 2 2 2 4 6 7 8 10 9 9 12 13 13 11 8 9 11 12 13
9 5 6 6 5 4 2 4 5 4 7 8 4 3 5 3 2 2 3 2 2 2 3 4 7 6 2 1 3 3 1 3 2 3 1 1 0 3 4 4 5 4 2 1 1 2 2 6 4 5 4 8 11 9 7 6 5 5 5 5 4 4 4 3 3 3 4 4 3 3 2 3 2 4 7 9 10 10 7 6 7 8 9 9 10 11 12 13
8 5 4 3 3 3 1 2 3 3 7 7 4 5 3 2 3 1 2 3 2 2 4 6 4 4 4 3 3 1 2 3 1 3 2 2 3 4 3 4 5 5 4 3 2 2 3 6 7 4 2 10 11 8 8 8 3 3 3 5 3 5 5 2 2 5 3 1 2 2 3 5 4 5 5 5 7 4 2 2 3 4 7 9 11 11 10 10
7 3 1 0 1 2 2 0 2 3 6 5 5 4 2 3 1 3 2 2 2 2 5 6 3 4 5 4 4 5 1 2 2 2 1 2 3 5 4 4 6 7 6 5 3 2 3 5 6 3 1 8 10 7 7 6 4 2 3 4 4 4 7 4 1 1 4 1 4 1 3 5 4 4 5 3 1 1 1 1 4 5 7 8 9 8 7 8
4 1 2 1 1 1 2 1 1 3 5 5 5 1 3 3 2 3 1 3 2 2 3 3 2 2 3 3 4 6 5 4 3 2 2 3 3 4 4 4 5 10 12 9 4 3 4 5 6 2 4 8 7 7 2 2 7 5 4 6 3 2 4 4 1 3 4 2 4 1 4 4 2 3 6 5 2 5 4 3 3 4 7 8 9 8 7 8
2 3 3 4 2 0 1 2 1 1 3 5 3 1 1 1 1 0 3 3 2 2 4 1 2 1 1 2 4 4 5 4 3 3 2 2 3 3 2 4 3 6 11 11 5 3 4 4 7 4 6 4 3 6 1 2 4 4 4 6 4 3 1 2 3 2 1 3 4 3 4 4 3 4 4 3 6 8 7 5 3 5 9 10 10 10 9 10
2 2 3 7 4 0 0 2 1 1 3 4 1 1 1 1 3 6 6 4 1 2 2 3 2 2 1 1 3 3 4 2 2 3 1 2 4 1 3 2 3 6 5 8 5 2 3 3 6 4 3 1 2 3 3 3 2 4 3 4 2 3 5 3 2 3 3 3 2 4 3 3 5 6 6 8 10 9 8 6 4 8 12 13 13 13 12 13
3 2 4 8 4 2 1 1 1 2 3 2 2 1 1 1 5 9 10 7 2 1 1 3 2 2 3 3 3 2 2 2 2 1 2 2 3 3 4 3 3 9 5 4 4 2 1 2 5 5 4 1 1 3 7 8 5 3 3 4 2 1 2 2 1 2 4 4 3 2 4 5 6 5 7 9 9 8 9 7 6 11 16 16 16 16 15 15
3 2 4 9 4 2 2 2 2 2 3 2 1 0 3 3 3 7 10 9 4 2 3 3 3 3 3 3 3 2 1 2 2 2 3 3 2 3 2 5 4 7 5 1 2 3 2 2 4 4 2 3 6 7 7 9 9 7 6 7 7 5 4 2 3 1 2 3 4 4 3 7 6 4 7 9 7 8 11 10 9 15 21 20 19 19 17 15
4 3 4 9 4 3 2 2 3 2 3 2 2 1 3 4 3 5 9 8 5 2 2 2 3 3 3 2 2 2 1 2 2 2 3 4 4 5 3 12 14 9 5 2 4 3 1 2 3 5 5 6 9 7 4 7 6 5 5 5 5 5 6 6 5 4 2 1 2 3 2 6 6 5 8 8 7 9 13 14 14 19 23 23 21 19 16 16
6 3 3 8 4 2 2 2 4 4 2 2 3 2 3 3 3 4 6 5 4 3 2 1 1 1 1 1 1 1 2 2 4 4 3 4 3 4 6 14 17 12 6 3 3 4 3 1 2 4 4 4 6 5 2 2 4 4 4 4 4 5 5 5 5 4 4 3 3 2 3 7 6 4 7 7 6 7 11 14 17 20 22 21 21 19 17 17
7 3 4 8 5 2 1 1 1 2 2 3 4 3 2 2 4 4 3 2 3 2 1 2 2 2 1 1 1 2 3 2 4 4 2 2 2 5 7 13 15 7 2 2 2 4 4 2 2 4 4 6 5 3 4 3 0 3 4 3 6 7 5 3 2 3 2 5 6 4 5 7 5 3 3 6 5 6 11 15 16 18 20 20 20 20 18 17
6 3 5 10 8 3 5 4 3 2 1 3 4 4 3 3 4 4 2 2 2 2 1 2 3 2 2 2 2 3 2 1 2 3 2 1 3 5 7 15 18 8 7 7 3 1 2 3 3 3 4 5 4 4 4 4 3 3 2 3 6 8 8 5 2 3 5 5 6 6 7 7 5 5 5 5 5 6 12 15 14 16 20 21 21 21 19 17
5 3 4 9 11 11 12 10 6 3 1 2 2 2 2 2 4 5 4 1 4 6 2 1 3 3 2 4 3 3 3 2 2 3 3 3 3 4 11 21 22 15 15 11 2 4 2 3 6 7 8 7 7 7 4 1 2 5 6 6 6 7 10 8 3 4 6 3 4 8 9 8 7 5 5 7 6 7 10 11 13 17 20 23 23 22 18 16
4 2 3 5 7 8 9 11 10 4 0 2 0 1 1 1 4 5 3 1 4 7 2 1 4 3 2 4 3 2 3 3 4 3 3 3 3 5 14 20 18 17 15 9 4 3 1 3 7 10 12 11 11 11 7 2 5 8 8 9 9 8 10 10 8 8 6 5 6 8 7 7 9 6 7 8 7 7 8 11 15 17 19 20 20 17 15 13
5 2 3 3 2 1 3 7 9 6 2 1 1 0 1 2 2 2 3 4 5 5 2 2 4 3 3 4 1 2 4 3 4 3 2 3 3 4 10 11 11 13 9 7 6 3 3 3 6 6 10 11 11 13 10 5 5 6 7 11 13 11 11 13 14 12 10 8 10 7 10 10 9 6 8 10 10 10 11 12 14 14 14 14 13 13 11 10
6 3 3 4 1 1 1 6 6 3 2 1 1 2 1 1 2 3 3 4 5 3 3 1 4 5 6 5 2 3 3 2 4 4 2 5 5 3 4 5 8 10 7 4 4 0 3 3 3 2 6 9 9 11 11 9 8 8 9 9 9 9 12 15 15 12 11 10 8 7 10 11 7 7 10 12 13 13 12 12 13 13 12 11 11 10 8 7
8 4 4 5 3 3 5 7 4 2 3 2 1 1 1 2 1 4 3 2 3 3 2 0 5 6 6 5 3 4 3 1 4 5 3 5 4 2 3 3 3 7 7 4 3 1 2 3 1 1 3 7 9 9 9 9 9 11 12 10 8 10 10 11 9 4 5 7 5 5 6 9 6 7 10 14 15 11 10 13 14 12 11 11 10 8 7 7
9 7 6 4 2 4 6 6 3 2 2 2 1 1 2 0 1 4 4 5 5 2 1 3 5 5 4 5 4 5 5 5 7 11 11 10 10 8 6 5 4 5 5 4 3 2 3 3 2 0 3 7 6 4 5 6 6 8 11 13 14 13 9 6 5 3 6 6 5 4 5 7 6 5 7 12 11 7 9 14 14 12 12 10 8 7 6 5
8 7 6 3 1 2 4 4 3 2 1 1 1 1 2 4 6 5 3 4 2 2 4 5 4 3 2 5 5 6 11 15 17 22 23 22 22 21 19 19 17 11 5 3 3 3 4 4 4 2 4 8 5 2 1 4 5 7 9 11 15 14 8 6 6 6 5 5 5 5 6 6 4 3 4 6 5 5 10 13 13 13 11 8 7 5 4 5
Wind_Direction
2 358 357 360 357 353 352 350 351 4 24 30 32 158 195 206 204 206 215 226 238 248 258 262 261 260 264 261 249 245 243 240 246 287 304 290 259 185 129 126 123 114 109 100 123 153 159 160 176 186 182 173 173 188 192 201 174 137 97 93 157 186 184 189 179 189 158 170 234 37 127 128 110 109 114 120 123 120 129 139 148 186 200 200 205 178 174 178
2 1 2 8 10 10 11 12 24 39 50 60 72 88 118 161 190 203 216 233 244 253 260 263 262 256 258 256 253 257 256 277 294 317 8 85 95 117 119 119 114 106 105 98 112 138 156 156 162 185 190 182 186 181 177 193 171 142 92 104 210 201 198 197 176 196 147 139 172 84 106 127 122 128 136 137 132 125 108 98 125 146 154 167 177 174 177 179
360 2 5 12 18 23 28 35 47 56 62 69 78 85 100 124 168 202 220 236 247 256 260 265 265 256 257 253 254 264 283 312 324 83 98 88 93 111 118 116 101 108 101 93 109 121 143 146 144 172 181 174 174 174 158 164 179 168 102 111 238 209 203 262 173 178 158 142 134 94 97 117 121 125 147 154 143 148 149 144 138 142 152 159 170 175 178 181
360 4 8 16 24 33 43 48 53 62 65 66 71 77 86 102 145 200 227 238 251 259 263 277 275 264 257 249 253 270 302 332 10 130 102 85 89 96 95 75 55 101 101 94 108 105 124 135 136 156 160 158 167 181 182 157 179 163 129 168 219 180 147 183 159 142 148 144 130 113 108 115 127 138 154 143 129 276 225 193 186 168 165 166 170 176 179 182
2 6 11 18 28 40 49 54 57 59 59 60 62 63 65 68 112 238 244 245 258 259 275 294 290 271 253 246 253 279 322 8 122 145 109 87 85 84 73 44 36 113 113 110 119 124 146 149 138 138 136 125 128 165 229 154 138 112 166 239 177 156 146 177 160 137 141 141 138 122 115 145 157 108 129 154 167 248 256 217 214 193 176 173 173 177 179 181
3 7 12 17 28 41 49 56 58 56 54 54 53 50 47 32 338 286 263 265 274 266 298 304 288 261 247 250 260 294 333 77 157 161 127 93 77 73 60 43 56 95 102 110 123 151 171 173 146 125 112 82 84 116 52 155 147 113 329 240 161 161 161 171 164 148 153 158 158 138 134 146 125 87 44 182 212 248 336 232 204 193 183 178 177 178 180 182
3 7 11 13 25 39 44 50 53 52 49 44 42 37 28 12 344 311 288 279 277 271 342 305 251 221 233 263 277 308 308 270 188 185 160 105 70 55 43 46 66 86 91 89 91 116 139 157 143 118 94 80 124 128 60 92 130 119 95 165 172 212 183 162 160 153 170 175 154 148 146 111 96 109 360 262 242 261 317 100 177 181 178 179 182 183 185 189
2 6 10 12 19 36 40 43 43 41 38 31 29 23 15 3 344 327 310 271 254 106 349 255 190 170 185 294 316 320 303 287 144 189 186 146 74 42 30 51 71 77 67 65 71 86 104 118 123 117 93 94 133 131 75 72 63 92 141 176 178 218 178 157 164 172 170 142 149 151 125 84 95 142 234 252 246 255 273 150 165 173 178 184 187 186 188 192
1 4 10 15 19 30 35 37 34 33 31 20 15 12 5 355 341 327 311 260 235 100 256 204 150 107 116 311 321 324 309 207 162 206 209 206 137 48 36 59 67 56 30 35 43 34 74 100 113 131 125 127 111 79 73 78 33 143 143 159 159 179 176 167 188 190 169 167 170 165 58 86 124 154 251 262 239 228 210 168 166 174 182 188 192 193 193 195
0 5 9 15 20 21 23 31 28 30 26 12 5 359 351 345 336 321 303 271 272 275 241 175 85 39 304 317 329 339 350 156 202 241 215 214 203 116 74 68 60 37 356 337 26 39 94 91 105 125 115 111 103 65 46 91 142 146 129 138 139 177 191 183 207 208 183 203 195 177 201 149 117 135 245 278 211 197 178 169 172 181 189 192 195 197 198 202
359 6 8 12 19 20 15 13 16 21 19 10 357 348 344 337 330 320 300 272 271 261 227 205 324 324 303 310 310 276 305 204 226 270 199 205 202 170 134 90 63 35 357 320 141 106 97 83 107 128 111 105 101 59 72 101 127 135 127 118 51 23 202 218 240 224 190 216 212 186 120 15 43 120 200 244 187 189 177 173 179 189 196 196 196 200 204 208
360 4 7 12 17 23 20 5 7 8 5 4 352 344 340 332 328 322 304 278 268 266 261 258 287 305 307 299 283 270 291 223 217 244 183 182 178 169 143 109 80 55 40 80 118 107 95 75 107 150 137 131 120 48 104 113 124 132 123 119 9 9 332 268 268 213 195 222 215 189 64 347 322 205 233 242 190 188 183 180 187 195 201 200 199 204 208 210
360 2 9 15 17 23 23 16 12 1 2 3 352 344 337 332 329 322 309 279 269 284 277 276 290 307 311 299 284 272 276 261 206 174 162 161 157 157 139 118 99 82 74 72 74 89 103 88 127 141 128 128 121 104 122 102 111 129 94 103 18 13 34 284 318 193 193 220 203 170 88 295 276 272 294 215 187 184 187 189 195 200 204 204 205 210 211 210
1 5 12 18 19 24 25 25 22 13 15 6 358 352 344 340 331 323 314 283 274 279 280 284 291 307 306 294 293 281 274 285 230 168 160 160 152 149 147 133 110 90 68 43 47 81 102 107 127 120 109 114 123 120 98 39 65 107 50 57 39 66 235 304 352 169 161 200 220 122 108 254 265 298 31 162 181 185 192 199 204 207 207 208 210 213 215 214
7 10 16 23 26 28 29 30 30 29 24 13 9 2 355 353 342 330 314 292 284 281 284 286 288 307 307 293 292 295 285 293 236 182 181 171 155 153 164 165 153 59 13 7 39 81 93 128 132 100 88 108 117 109 37 10 30 34 89 326 344 107 263 310 1 163 151 186 246 96 129 263 268 261 104 137 174 189 202 210 212 213 212 213 216 218 219 219
14 17 22 29 34 36 36 37 40 37 27 18 11 4 6 4 339 330 325 310 298 287 285 282 286 303 309 304 314 324 311 305 200 191 192 176 161 162 173 189 207 326 340 350 72 104 113 133 111 67 72 97 101 94 48 21 360 3 91 203 305 53 318 317 3 336 136 137 15 66 164 258 279 240 162 139 177 196 212 221 221 220 218 217 219 222 223 222
19 23 28 34 39 42 44 47 47 39 26 16 9 360 3 1 335 343 348 335 315 296 292 277 286 299 282 282 344 342 335 319 205 196 193 180 183 184 178 216 324 323 342 68 112 126 126 120 98 58 54 67 76 90 63 19 334 329 31 69 270 297 342 312 326 346 62 110 359 46 156 235 275 263 249 232 209 209 219 229 232 229 223 222 226 228 227 225
25 29 34 38 43 47 52 56 54 44 29 21 23 17 13 18 26 23 16 353 331 309 299 265 255 308 265 246 347 343 333 289 218 202 199 197 196 189 218 323 344 339 50 99 83 82 90 58 72 59 21 30 44 77 93 209 194 177 72 74 317 317 238 268 277 314 26 42 166 66 263 259 275 284 280 278 284 249 241 245 250 244 229 223 227 230 229 227
27 33 37 42 49 55 63 63 58 50 37 28 24 32 36 31 44 51 15 330 298 274 291 244 209 193 222 282 347 355 348 274 223 210 206 208 204 207 233 299 326 354 78 102 29 32 60 49 61 84 10 297 171 125 153 189 162 148 155 142 154 214 257 246 246 276 8 60 189 197 218 256 274 284 280 276 286 280 268 268 266 262 246 228 225 229 229 228
25 34 38 48 59 66 71 63 55 49 44 38 28 45 39 21 21 347 334 312 283 263 263 256 250 249 258 291 321 348 343 304 237 206 194 203 205 208 228 268 327 34 60 137 336 9 54 67 89 193 209 212 199 161 148 141 122 122 114 110 147 182 269 269 261 292 6 83 260 216 220 264 268 269 269 273 290 292 279 275 270 266 257 243 232 230 230 230
19 28 37 53 71 77 70 53 47 44 43 42 42 61 48 21 23 333 331 319 305 290 269 261 261 261 266 280 285 307 322 303 242 195 182 196 194 195 232 289 55 54 7 264 211 351 54 85 232 224 209 180 159 136 113 95 82 88 103 97 60 183 248 265 260 304 2 46 280 352 319 275 263 265 271 281 295 289 278 271 267 264 256 246 236 231 229 228
13 19 31 50 78 79 59 40 40 41 44 45 46 58 49 21 3 325 325 309 306 307 284 265 258 257 259 266 278 292 300 289 258 206 185 189 188 196 204 72 80 98 330 15 48 6 34 271 250 219 162 113 86 77 86 85 81 77 94 98 335 255 262 285 299 324 9 39 281 349 343 278 274 275 276 282 272 266 275 265 262 267 260 246 232 228 225 221
7 13 24 42 70 60 37 31 33 42 52 48 43 51 43 19 353 328 317 289 296 304 295 271 258 259 260 262 272 272 253 246 260 223 198 196 190 189 155 94 86 116 360 45 109 86 55 265 254 180 143 109 72 51 76 79 74 78 108 119 249 268 281 297 310 329 3 35 309 359 336 283 291 301 287 277 253 257 279 269 263 261 250 236 221 220 219 214
4 7 15 41 57 36 21 19 23 49 54 39 34 37 19 350 330 326 317 284 288 305 313 282 257 263 265 263 266 255 235 225 241 234 209 202 185 155 163 124 102 141 333 115 127 134 235 245 153 124 122 109 97 71 89 96 47 334 162 151 189 231 206 214 302 336 353 8 24 32 345 299 312 333 300 283 236 260 298 297 274 244 226 218 213 215 213 208
3 358 355 9 2 340 349 357 12 48 32 20 17 11 355 335 318 319 326 341 302 298 324 319 257 268 270 253 236 232 230 227 232 233 220 209 192 153 103 128 118 240 182 136 117 131 265 231 139 122 86 96 108 149 177 141 128 314 243 197 188 178 186 201 13 24 29 351 331 45 15 296 314 313 280 310 329 300 329 358 358 208 207 208 208 210 207 204
353 351 340 311 300 301 310 316 322 333 339 355 359 356 350 340 327 316 348 43 342 297 331 13 273 282 271 212 199 185 321 269 241 233 230 215 198 165 106 120 53 264 169 144 128 176 253 235 124 129 125 107 97 197 227 153 119 316 248 201 178 140 132 130 108 75 48 292 286 74 110 265 310 299 268 312 327 311 331 348 336 185 195 203 205 204 201 203
340 338 337 320 304 302 300 293 296 324 342 345 350 352 347 344 344 325 9 42 357 309 323 333 105 80 295 204 184 157 37 296 262 233 217 202 197 180 172 248 350 199 168 128 261 245 164 74 61 97 114 115 122 225 225 146 124 251 238 160 144 138 153 157 134 142 213 255 314 22 117 215 294 275 270 305 308 313 327 315 296 215 194 197 203 203 201 205
345 329 325 321 313 309 302 284 287 322 340 341 347 347 342 342 342 357 72 64 325 311 335 265 28 359 341 207 196 187 271 304 6 241 209 193 194 182 202 227 183 182 163 124 226 269 166 153 165 139 117 150 192 215 186 150 145 244 197 135 141 149 155 150 124 127 80 29 313 309 121 159 270 274 307 334 305 313 313 290 283 247 208 199 203 206 207 211
348 339 324 309 304 308 303 288 295 328 338 340 344 339 333 327 326 35 83 82 299 314 338 327 342 331 356 141 202 222 274 337 25 251 203 192 197 183 201 218 170 159 167 122 200 245 223 201 195 153 136 197 216 214 170 163 185 204 144 97 83 83 84 92 112 126 56 38 263 254 172 173 270 282 310 347 286 279 280 282 282 267 231 209 210 212 213 218
337 343 338 315 301 295 292 293 303 336 342 339 338 335 332 323 354 57 49 279 305 331 333 339 356 344 356 55 253 264 262 269 336 119 172 188 211 211 138 167 124 121 27 15 210 242 282 222 187 167 185 198 181 161 173 172 146 128 112 71 55 39 38 46 63 92 66 334 260 238 190 170 283 284 263 215 209 210 217 279 286 278 243 215 217 220 219 225
327 334 340 335 318 287 284 294 296 326 333 332 339 341 342 354 68 84 84 254 281 342 349 349 356 355 344 191 270 280 252 263 277 136 160 148 253 241 107 130 83 74 4 342 303 300 335 101 177 213 208 170 106 85 125 154 116 108 93 87 77 357 14 23 358 48 81 266 270 245 183 149 210 261 247 238 258 229 200 241 263 276 259 220 216 221 224 230
330 325 333 342 337 303 291 288 284 309 320 330 343 352 61 41 41 116 270 308 356 349 349 335 325 339 324 270 247 242 210 260 238 131 162 147 123 212 198 195 177 40 325 274 280 327 322 214 246 290 209 174 133 87 42 26 78 93 92 101 111 315 9 1 307 30 185 243 255 204 182 184 226 246 251 259 269 248 221 227 240 262 261 222 212 222 229 234
343 328 333 344 346 328 285 262 279 303 323 335 341 10 80 69 39 259 311 340 22 331 332 313 307 312 295 286 280 246 207 246 231 154 167 157 184 253 256 210 163 160 261 227 281 327 321 294 287 20 242 189 161 149 170 209 172 152 145 137 149 142 77 289 268 252 257 259 253 215 227 274 278 265 231 225 252 261 255 249 250 257 252 229 225 231 236 237
353 351 348 352 352 344 270 248 280 309 334 340 351 60 71 84 242 304 336 310 282 317 339 318 313 321 321 257 272 244 228 273 214 147 168 152 315 269 271 238 181 164 172 165 260 201 267 301 223 182 218 183 177 189 179 152 156 178 155 134 153 157 166 225 227 205 242 268 276 282 257 194 224 255 211 218 262 289 294 262 248 248 237 232 236 234 237 237
354 7 1 2 360 3 23 263 290 330 340 346 40 69 90 204 257 274 266 284 297 320 325 316 327 360 344 308 295 279 210 267 311 109 176 182 187 217 226 221 194 151 134 186 252 183 206 264 242 236 190 165 183 197 153 118 127 211 124 114 179 184 161 170 180 179 179 231 264 272 244 212 216 262 251 246 265 293 360 148 163 206 218 225 233 231 235 233
344 360 22 8 325 46 85 336 315 341 345 15 64 70 165 216 224 173 216 317 335 337 332 330 18 35 337 318 331 344 328 269 328 15 259 225 229 224 218 227 194 168 164 185 219 184 190 260 271 305 243 191 195 178 153 158 176 172 134 172 216 165 128 125 207 47 76 154 253 246 248 283 323 298 305 343 226 204 29 133 160 191 207 217 222 218 223 221
347 44 111 122 238 131 124 120 22 344 354 47 79 132 215 214 191 180 336 358 320 358 39 12 350 358 340 336 326 334 343 324 326 339 282 280 275 218 220 256 194 184 199 199 216 220 188 260 280 227 222 239 201 153 118 152 142 133 186 198 186 114 99 110 156 14 47 215 267 268 223 270 329 281 312 347 241 228 246 219 200 217 213 215 215 210 218 219
28 131 103 57 43 326 197 145 111 324 17 56 74 271 244 184 176 41 10 359 318 46 77 113 272 301 28 345 295 310 339 334 327 324 282 275 272 203 216 277 205 208 222 208 229 255 178 255 284 227 210 254 147 132 62 347 119 129 183 168 127 142 178 101 141 168 186 224 283 298 245 238 206 220 271 265 220 225 235 229 240 230 213 214 217 216 221 221
8 162 60 33 42 49 159 140 173 175 53 55 83 281 306 251 333 4 17 3 351 77 83 210 224 322 315 243 245 284 319 296 298 320 285 254 268 236 46 348 312 321 274 191 195 252 167 233 278 278 236 236 68 121 187 246 351 53 118 148 115 159 172 160 153 162 177 198 259 298 292 244 223 211 201 210 216 217 219 222 235 226 215 215 219 223 229 232
347 151 44 17 33 135 129 124 149 83 61 63 187 206 318 293 328 358 22 23 10 123 211 208 191 279 269 253 249 258 276 242 235 271 229 251 286 306 30 42 342 337 332 180 196 249 135 224 251 290 306 186 175 209 192 192 180 126 152 179 184 142 133 171 205 134 141 165 185 248 278 259 242 208 187 205 218 208 201 205 223 224 219 219 222 227 234 240
358 98 34 2 5 173 149 86 46 50 83 94 154 35 337 323 321 348 8 13 347 251 217 202 197 212 230 262 266 243 262 253 227 232 234 247 277 268 10 34 6 342 355 7 272 252 211 206 220 253 275 208 227 235 206 194 190 180 187 194 188 175 142 176 245 231 125 161 173 178 246 260 249 198 190 208 212 203 198 197 214 225 222 223 226 229 235 244
25 73 22 360 353 205 158 72 11 17 98 66 345 294 314 320 333 350 351 358 355 311 262 231 224 223 224 235 254 239 222 230 231 220 227 236 221 217 323 3 4 360 3 309 262 263 173 159 223 236 224 226 245 250 211 197 192 173 194 199 179 170 153 164 215 225 170 181 163 135 235 268 256 199 196 212 208 203 203 200 213 229 229 229 231 233 239 248
22 37 17 10 10 195 137 50 360 9 64 346 323 278 287 328 14 4 344 354 4 337 325 308 275 295 256 223 331 265 212 230 232 219 232 242 230 246 309 349 360 1 357 319 284 327 1 147 260 277 280 297 289 290 298 187 147 156 209 187 158 193 186 169 187 173 159 187 157 119 256 269 273 223 208 228 227 222 225 217 220 233 235 235 238 240 244 251
357 360 35 24 8 217 144 68 33 30 355 328 350 339 322 22 37 10 334 341 353 325 325 338 322 341 338 312 318 245 228 258 244 237 248 216 247 308 322 347 354 348 294 297 312 334 322 283 313 318 306 321 330 326 313 311 203 195 223 185 185 196 164 133 148 126 177 213 169 158 243 254 273 299 253 244 236 244 251 238 229 236 241 242 245 246 249 254
346 357 34 23 17 73 89 77 125 121 23 355 351 333 344 10 11 1 313 292 358 346 277 306 311 310 335 343 330 294 257 243 261 287 327 297 287 306 336 347 345 323 265 275 252 186 282 265 276 286 261 264 270 243 241 262 264 254 252 214 203 188 171 177 165 154 218 224 165 187 242 254 279 322 313 261 235 248 258 249 239 242 245 248 250 252 254 255
20 23 3 10 31 68 76 59 62 96 90 42 345 318 38 352 317 338 336 298 20 1 309 279 335 329 12 26 6 321 293 292 314 318 328 315 286 309 343 343 335 311 289 287 222 150 184 220 220 233 238 239 245 247 248 245 252 260 254 231 212 194 192 189 145 175 204 172 179 218 232 249 265 279 277 259 242 245 253 250 246 244 246 250 254 257 257 254
50 46 350 358 24 55 62 45 37 34 140 132 205 281 60 327 299 337 348 303 1 355 336 69 28 25 360 1 5 299 292 327 332 308 295 294 266 304 333 337 329 312 306 317 6 76 129 255 247 242 247 252 254 261 275 284 243 259 271 259 242 215 194 185 196 207 163 138 234 227 190 225 245 223 231 253 249 245 248 246 247 249 252 253 252 250 249 250
53 85 66 46 342 339 46 14 3 2 356 148 157 337 27 13 343 345 325 319 342 5 46 2 4 23 312 307 317 284 301 327 315 294 290 305 310 329 332 330 320 321 341 357 343 29 122 258 271 266 272 275 274 279 286 285 251 259 274 267 257 235 199 194 215 210 163 180 236 204 170 213 230 198 221 238 231 237 251 253 255 258 257 247 233 231 238 247
58 87 60 32 354 223 355 330 325 3 10 325 47 33 44 71 3 311 291 326 334 348 75 343 306 325 314 293 236 253 279 301 300 301 322 313 314 324 318 307 304 321 359 11 313 73 123 270 265 262 289 288 285 285 284 282 277 274 274 278 281 258 217 208 220 209 183 207 223 163 183 228 224 192 219 236 240 252 263 264 263 257 243 224 213 220 227 229
53 49 6 1 11 9 358 343 348 53 9 358 69 6 326 146 30 319 284 252 283 307 30 30 283 297 297 289 255 228 233 305 290 275 285 308 310 292 273 255 274 311 330 323 296 162 175 266 268 122 293 287 279 275 276 280 280 276 277 279 284 278 254 238 240 205 179 230 234 162 212 255 243 203 227 249 257 265 263 256 251 239 219 205 201 205 207 220
46 31 4 357 3 360 357 345 2 56 360 7 69 305 320 232 315 337 294 238 205 212 311 302 292 296 298 300 268 232 262 301 280 270 272 269 262 257 263 260 263 296 304 279 272 174 183 249 289 60 290 280 263 255 286 304 298 279 275 265 256 258 258 252 252 205 183 210 220 204 236 263 254 217 233 253 252 244 243 241 229 211 201 197 194 195 205 230
39 21 5 10 341 1 10 340 347 25 267 306 42 348 314 293 310 338 314 254 224 302 320 311 290 289 311 298 272 271 303 309 297 292 288 276 266 260 259 260 260 261 258 245 249 218 208 256 269 246 283 283 258 196 298 322 306 280 264 249 245 244 237 245 259 252 227 188 176 208 236 252 244 184 207 239 229 219 231 223 205 195 190 186 187 195 219 249
Height
1496 1495 1493 1493 1492 1491 1490 1490 1489 1489 1488 1488 1488 1489 1489 1490 1490 1491 1492 1493 1493 1494 1494 1494 1494 1494 1494 1494 1495 1495 1495 1495 1495 1495 1495 1494 1494 1494 1494 1495 1495 1495 1495 1495 1495 1496 1496 1497 1498 1498 1499 1500 1500 1501 1502 1503 1504 1505 1509 1512 1514 1516 1514 1511 1512 1512 1510 1511 1511 1510 1510 1511 1513 1514 1514 1516 1516 1517 1518 1519 1519 1520 1521 1522 1523 1524 1525 1526
1496 1495 1494 1493 1492 1491 1490 1490 1489 1489 1488 1488 1488 1489 1489 1490 1491 1491 1492 1493 1493 1494 1494 1494 1494 1494 1494 1494 1495 1495 1495 1495 1495 1495 1495 1494 1494 1494 1495 1495 1495 1495 1495 1495 1495 1496 1497 1497 1497 1498 1499 1499 1500 1501 1502 1503 1503 1505 1511 1513 1513 1514 1511 1509 1510 1510 1510 1510 1510 1511 1510 1511 1512 1513 1514 1515 1517 1517 1518 1520 1520 1520 1521 1522 1523 1524 1525 1527
1496 1495 1494 1493 1492 1491 1491 1490 1490 1489 1489 1489 1488 1489 1489 1490 1491 1491 1492 1493 1493 1493 1494 1494 1494 1494 1495 1495 1495 1495 1495 1495 1495 1495 1495 1495 1495 1495 1495 1495 1495 1495 1495 1495 1495 1496 1496 1497 1497 1497 1498 1499 1500 1501 1502 1503 1503 1505 1509 1511 1510 1510 1510 1509 1510 1509 1509 1509 1510 1510 1510 1511 1512 1513 1513 1514 1516 1517 1518 1519 1520 1520 1521 1522 1523 1524 1525 1527
1496 1495 1494 1493 1492 1492 1491 1491 1490 1490 1489 1489 1489 1489 1490 1490 1491 1491 1492 1492 1493 1493 1494 1494 1494 1494 1495 1495 1495 1496 1495 1495 1495 1495 1495 1495 1495 1495 1495 1495 1495 1495 1495 1495 1495 1496 1496 1496 1497 1497 1498 1499 1500 1501 1502 1502 1503 1505 1507 1508 1508 1509 1510 1509 1509 1509 1509 1510 1510 1510 1511 1511 1512 1513 1513 1514 1516 1517 1517 1516 1517 1519 1520 1521 1523 1524 1525 1526
1496 1495 1494 1493 1493 1492 1492 1491 1491 1490 1490 1490 1490 1490 1490 1491 1491 1491 1492 1492 1493 1493 1494 1494 1494 1495 1495 1495 1496 1496 1496 1496 1495 1495 1496 1496 1496 1496 1496 1495 1495 1495 1495 1495 1495 1496 1496 1496 1496 1497 1497 1499 1500 1501 1502 1502 1503 1505 1506 1507 1507 1508 1509 1509 1509 1509 1509 1510 1510 1510 1511 1511 1512 1513 1513 1514 1515 1516 1515 1515 1517 1518 1519 1520 1522 1524 1525 1527
1496 1495 1494 1494 1493 1493 1492 1491 1491 1491 1490 1490 1490 1490 1491 1491 1491 1492 1492 1493 1493 1494 1494 1494 1495 1495 1495 1495 1496 1496 1497 1497 1495 1496 1496 1496 1496 1496 1496 1496 1496 1496 1496 1496 1496 1496 1496 1496 1496 1497 1498 1499 1501 1501 1501 1502 1502 1504 1507 1507 1507 1508 1508 1508 1509 1509 1510 1510 1510 1510 1511 1512 1512 1513 1514 1514 1514 1515 1515 1516 1517 1518 1520 1521 1522 1523 1525 1526
1496 1495 1494 1494 1494 1493 1493 1492 1492 1491 1491 1491 1491 1491 1491 1491 1491 1492 1492 1493 1493 1494 1494 1495 1495 1495 1495 1496 1496 1496 1496 1496 1495 1496 1496 1496 1496 1496 1496 1496 1496 1496 1496 1496 1496 1496 1496 1496 1496 1497 1498 1499 1501 1501 1501 1502 1502 1503 1507 1508 1508 1508 1508 1508 1509 1509 1510 1509 1510 1510 1511 1512 1512 1513 1514 1514 1514 1514 1515 1516 1517 1519 1520 1521 1523 1524 1525 1526
1496 1495 1495 1494 1494 1493 1493 1493 1492 1492 1492 1491 1491 1491 1492 1492 1492 1492 1492 1493 1494 1494 1494 1495 1495 1495 1496 1496 1496 1496 1496 1496 1496 1496 1496 1497 1497 1497 1497 1496 1496 1497 1497 1497 1496 1497 1496 1496 1497 1497 1498 1500 1500 1501 1502 1502 1503 1504 1506 1508 1508 1508 1508 1509 1509 1510 1510 1510 1510 1511 1511 1512 1513 1514 1514 1514 1514 1514 1515 1516 1517 1519 1520 1521 1522 1523 1524 1525
1497 1496 1495 1494 1494 1494 1494 1493 1493 1493 1493 1492 1492 1492 1492 1492 1492 1492 1493 1493 1494 1495 1495 1495 1495 1495 1496 1496 1496 1496 1495 1495 1496 1496 1496 1497 1497 1497 1497 1497 1497 1497 1497 1497 1497 1497 1497 1497 1497 1497 1498 1500 1500 1501 1501 1502 1504 1505 1506 1507 1508 1509 1509 1509 1510 1510 1510 1511 1511 1511 1512 1513 1513 1514 1514 1513 1513 1514 1515 1515 1517 1518 1520 1521 1522 1523 1524 1524
1497 1496 1495 1494 1494 1494 1494 1494 1494 1493 1493 1493 1493 1493 1493 1493 1493 1493 1493 1494 1494 1495 1495 1495 1495 1495 1496 1496 1497 1497 1495 1495 1496 1496 1496 1496 1497 1497 1497 1497 1497 1497 1497 1497 1497 1497 1497 1497 1497 1497 1498 1499 1500 1501 1502 1502 1504 1505 1506 1508 1508 1509 1509 1510 1510 1511 1511 1511 1511 1512 1513 1513 1514 1514 1514 1513 1513 1513 1514 1515 1516 1517 1519 1520 1521 1522 1523 1524
1497 1496 1495 1495 1494 1494 1494 1494 1494 1494 1494 1494 1494 1493 1493 1493 1493 1493 1493 1494 1495 1495 1495 1495 1495 1496 1496 1496 1497 1497 1495 1495 1495 1495 1495 1496 1497 1497 1498 1498 1497 1498 1497 1497 1497 1497 1497 1497 1498 1498 1498 1499 1501 1502 1502 1502 1504 1505 1506 1508 1510 1510 1510 1511 1511 1511 1512 1511 1511 1512 1513 1513 1514 1514 1513 1513 1513 1513 1514 1515 1516 1517 1517 1519 1520 1521 1522 1523
1497 1497 1496 1495 1495 1494 1494 1494 1494 1494 1494 1494 1494 1494 1494 1494 1493 1493 1494 1494 1495 1495 1495 1495 1495 1496 1496 1496 1496 1495 1494 1495 1495 1495 1495 1495 1497 1497 1498 1498 1498 1498 1498 1498 1497 1497 1498 1498 1498 1498 1498 1500 1501 1503 1503 1504 1505 1506 1507 1509 1511 1512 1512 1512 1511 1512 1512 1511 1511 1512 1513 1514 1514 1513 1513 1512 1512 1513 1514 1515 1515 1516 1517 1518 1519 1520 1521 1522
1498 1497 1497 1496 1495 1495 1495 1495 1495 1495 1495 1495 1494 1494 1494 1494 1494 1493 1494 1494 1495 1495 1495 1495 1495 1496 1496 1495 1494 1494 1494 1494 1494 1495 1495 1496 1496 1497 1498 1498 1498 1498 1498 1498 1498 1498 1498 1498 1498 1498 1499 1499 1501 1502 1503 1505 1505 1506 1508 1509 1512 1514 1513 1512 1511 1512 1512 1512 1511 1512 1516 1516 1513 1513 1512 1511 1512 1513 1514 1515 1515 1516 1517 1518 1518 1519 1520 1521
1499 1498 1497 1496 1496 1496 1495 1495 1495 1495 1495 1495 1495 1495 1494 1494 1494 1493 1494 1494 1495 1495 1495 1496 1496 1496 1496 1495 1494 1494 1494 1494 1494 1495 1495 1496 1496 1497 1498 1498 1498 1498 1498 1498 1498 1498 1498 1498 1498 1498 1499 1500 1501 1502 1504 1506 1507 1509 1510 1512 1517 1516 1513 1511 1511 1512 1511 1512 1511 1511 1517 1517 1512 1513 1511 1510 1512 1513 1514 1514 1515 1515 1516 1517 1517 1518 1519 1520
1499 1498 1498 1497 1497 1496 1496 1496 1496 1496 1496 1495 1495 1495 1494 1494 1494 1494 1494 1494 1495 1495 1495 1496 1496 1496 1496 1494 1493 1494 1493 1494 1494 1495 1495 1496 1496 1497 1498 1498 1498 1498 1498 1498 1498 1498 1498 1498 1498 1498 1500 1500 1501 1503 1506 1508 1510 1513 1512 1513 1520 1518 1513 1512 1511 1511 1511 1512 1511 1512 1517 1517 1513 1512 1512 1511 1512 1513 1513 1514 1515 1515 1515 1516 1516 1517 1517 1518
1500 1499 1498 1498 1498 1497 1497 1497 1496 1497 1496 1496 1496 1495 1495 1495 1494 1494 1494 1494 1495 1495 1495 1496 1496 1496 1496 1493 1493 1493 1493 1494 1494 1494 1495 1496 1496 1497 1497 1498 1498 1498 1498 1498 1498 1498 1498 1498 1499 1499 1500 1501 1503 1503 1507 1510 1512 1516 1515 1513 1519 1519 1516 1514 1511 1511 1511 1511 1512 1512 1516 1515 1512 1511 1511 1512 1512 1513 1513 1513 1513 1514 1514 1515 1515 1516 1516 1517
1501 1500 1499 1499 1498 1498 1498 1498 1498 1497 1497 1497 1496 1496 1495 1495 1494 1494 1495 1495 1495 1495 1495 1495 1496 1496 1494 1493 1493 1493 1493 1493 1493 1494 1495 1496 1496 1497 1497 1497 1498 1498 1498 1497 1498 1498 1498 1498 1499 1500 1501 1504 1506 1504 1508 1515 1514 1517 1517 1517 1521 1522 1520 1516 1511 1512 1511 1511 1512 1513 1514 1513 1510 1510 1510 1511 1512 1512 1512 1511 1512 1512 1512 1513 1514 1514 1515 1515
1501 1501 1500 1500 1499 1499 1499 1499 1499 1498 1498 1497 1497 1496 1496 1495 1495 1495 1495 1495 1495 1495 1495 1495 1496 1496 1494 1492 1493 1493 1493 1493 1493 1494 1495 1495 1496 1496 1497 1497 1497 1498 1498 1497 1498 1498 1498 1499 1499 1501 1503 1505 1506 1504 1510 1516 1514 1514 1515 1516 1521 1523 1523 1520 1515 1512 1512 1512 1513 1514 1515 1513 1511 1510 1509 1509 1510 1511 1510 1510 1510 1510 1511 1512 1513 1513 1513 1513
1502 1502 1501 1501 1500 1500 1500 1500 1500 1499 1499 1498 1498 1497 1497 1496 1495 1495 1495 1495 1495 1495 1494 1494 1494 1496 1494 1492 1493 1493 1492 1493 1493 1493 1494 1495 1496 1496 1497 1497 1497 1497 1498 1498 1498 1499 1499 1500 1501 1504 1505 1504 1504 1504 1507 1510 1510 1512 1515 1515 1517 1519 1520 1520 1516 1514 1514 1513 1513 1514 1514 1512 1511 1509 1508 1507 1508 1509 1508 1508 1508 1507 1508 1510 1511 1511 1511 1512
1503 1503 1502 1502 1501 1501 1501 1501 1501 1500 1500 1499 1498 1498 1497 1497 1496 1496 1495 1494 1494 1493 1493 1493 1493 1493 1492 1492 1493 1493 1493 1493 1493 1493 1494 1494 1495 1496 1496 1497 1497 1497 1499 1500 1500 1500 1500 1503 1505 1505 1505 1504 1506 1508 1508 1510 1512 1513 1515 1516 1519 1521 1518 1517 1515 1515 1515 1513 1513 1515 1514 1513 1512 1509 1507 1506 1507 1507 1506 1506 1505 1504 1505 1506 1508 1509 1509 1510
1504 1503 1503 1503 1502 1502 1502 1502 1502 1501 1501 1500 1499 1498 1499 1500 1499 1499 1496 1492 1491 1491 1491 1491 1491 1491 1491 1491 1492 1492 1493 1492 1492 1493 1493 1494 1495 1495 1496 1497 1497 1499 1501 1502 1502 1501 1502 1505 1506 1504 1505 1507 1510 1512 1510 1511 1514 1514 1515 1517 1520 1523 1519 1515 1515 1516 1516 1514 1514 1517 1515 1512 1511 1509 1506 1505 1506 1505 1503 1503 1502 1501 1502 1503 1505 1506 1507 1508
1504 1504 1504 1503 1503 1503 1503 1503 1503 1502 1502 1501 1500 1500 1501 1502 1502 1501 1499 1495 1490 1489 1490 1489 1489 1490 1490 1491 1491 1492 1493 1492 1492 1492 1493 1494 1494 1495 1496 1497 1498 1500 1502 1502 1503 1503 1504 1504 1504 1505 1508 1510 1512 1514 1511 1512 1515 1516 1519 1520 1520 1523 1521 1516 1516 1517 1517 1515 1514 1517 1516 1511 1510 1508 1506 1505 1505 1504 1502 1502 1501 1500 1500 1501 1502 1504 1505 1507
1505 1505 1504 1504 1504 1504 1504 1504 1503 1503 1503 1502 1501 1501 1502 1502 1502 1501 1501 1498 1492 1488 1488 1488 1488 1488 1489 1490 1491 1492 1492 1492 1492 1492 1492 1493 1494 1495 1495 1497 1500 1501 1502 1503 1503 1506 1506 1503 1504 1507 1508 1507 1511 1514 1512 1513 1516 1518 1519 1518 1518 1523 1522 1516 1515 1517 1518 1518 1517 1517 1516 1512 1509 1508 1504 1503 1504 1503 1502 1500 1499 1499 1499 1499 1501 1502 1504 1505
1506 1505 1505 1505 1505 1504 1504 1504 1504 1504 1503 1503 1502 1502 1502 1502 1502 1501 1500 1498 1494 1488 1487 1487 1487 1487 1488 1489 1490 1491 1491 1492 1492 1491 1492 1492 1493 1495 1495 1497 1500 1501 1503 1504 1504 1506 1505 1503 1506 1508 1507 1506 1510 1514 1513 1512 1515 1520 1520 1517 1516 1518 1518 1517 1518 1518 1517 1520 1520 1518 1516 1511 1507 1507 1503 1502 1503 1502 1501 1499 1498 1498 1498 1499 1500 1501 1503 1504
1506 1506 1505 1505 1505 1504 1504 1504 1504 1504 1504 1503 1503 1503 1502 1501 1501 1500 1499 1499 1496 1490 1487 1487 1487 1487 1488 1489 1490 1490 1490 1490 1490 1490 1491 1491 1493 1494 1495 1497 1498 1500 1503 1506 1506 1504 1503 1504 1506 1507 1508 1508 1509 1512 1514 1512 1514 1519 1518 1514 1513 1513 1515 1518 1520 1519 1519 1521 1521 1520 1521 1515 1507 1506 1503 1501 1502 1500 1498 1499 1498 1498 1498 1498 1499 1500 1501 1503
1506 1506 1505 1505 1505 1505 1505 1504 1504 1504 1504 1504 1503 1502 1502 1500 1500 1499 1499 1502 1498 1490 1488 1488 1488 1488 1488 1489 1489 1490 1492 1491 1489 1490 1491 1491 1493 1494 1495 1498 1499 1500 1503 1505 1505 1504 1504 1506 1506 1506 1507 1509 1509 1511 1513 1514 1516 1517 1513 1511 1514 1514 1515 1518 1519 1520 1521 1523 1522 1523 1525 1521 1510 1504 1502 1504 1503 1498 1497 1498 1498 1498 1498 1498 1499 1499 1501 1502
1506 1506 1505 1505 1505 1504 1505 1504 1504 1505 1504 1504 1503 1502 1501 1500 1500 1498 1499 1505 1501 1492 1490 1490 1489 1489 1489 1489 1489 1491 1494 1492 1488 1489 1490 1491 1493 1493 1495 1498 1499 1499 1501 1503 1505 1504 1504 1506 1507 1507 1508 1510 1511 1509 1511 1513 1514 1513 1510 1511 1514 1514 1515 1517 1518 1519 1522 1523 1523 1524 1523 1523 1516 1505 1504 1507 1503 1497 1497 1498 1498 1498 1498 1498 1499 1499 1500 1501
1506 1506 1505 1505 1504 1504 1504 1504 1504 1504 1504 1504 1503 1502 1501 1500 1500 1499 1501 1508 1502 1492 1491 1490 1489 1490 1489 1490 1490 1490 1492 1491 1490 1490 1490 1491 1493 1493 1495 1496 1497 1498 1499 1502 1504 1504 1503 1504 1505 1505 1508 1511 1508 1505 1507 1510 1510 1509 1511 1512 1512 1513 1515 1516 1516 1519 1525 1525 1522 1522 1522 1524 1519 1507 1504 1507 1502 1497 1496 1496 1497 1497 1498 1498 1499 1499 1500 1501
1506 1505 1505 1504 1504 1504 1504 1504 1504 1504 1504 1503 1502 1502 1501 1500 1500 1499 1504 1508 1500 1491 1491 1491 1490 1491 1490 1490 1490 1490 1490 1490 1491 1491 1490 1492 1493 1493 1494 1495 1496 1498 1499 1501 1502 1501 1501 1501 1501 1502 1504 1505 1502 1502 1505 1506 1506 1508 1511 1513 1513 1516 1518 1518 1518 1519 1525 1526 1519 1518 1520 1522 1518 1506 1503 1504 1501 1499 1498 1496 1496 1496 1497 1497 1497 1498 1499 1500
1505 1505 1504 1503 1503 1503 1503 1504 1504 1504 1503 1503 1502 1501 1500 1500 1500 1504 1509 1507 1498 1493 1493 1492 1492 1492 1492 1492 1492 1491 1490 1491 1491 1491 1491 1493 1493 1493 1494 1495 1496 1498 1500 1501 1501 1499 1499 1499 1500 1500 1499 1498 1499 1503 1506 1505 1506 1508 1510 1512 1514 1519 1520 1522 1524 1522 1525 1525 1516 1516 1519 1520 1519 1509 1501 1501 1498 1497 1496 1496 1495 1494 1495 1496 1496 1497 1498 1499
1505 1504 1504 1503 1503 1502 1503 1503 1503 1503 1503 1502 1502 1500 1500 1501 1504 1510 1512 1504 1499 1497 1495 1494 1494 1494 1493 1494 1493 1491 1491 1491 1490 1491 1492 1493 1494 1494 1495 1496 1496 1499 1502 1500 1499 1500 1500 1499 1499 1496 1494 1496 1498 1503 1506 1507 1507 1507 1509 1510 1514 1519 1521 1523 1525 1524 1526 1522 1516 1520 1523 1521 1520 1509 1498 1498 1498 1497 1496 1495 1494 1493 1493 1494 1494 1495 1497 1498
1504 1503 1503 1502 1502 1502 1502 1503 1502 1503 1502 1502 1501 1499 1501 1505 1508 1512 1508 1501 1502 1503 1498 1498 1496 1495 1495 1494 1493 1492 1491 1491 1490 1490 1492 1494 1495 1495 1496 1497 1497 1501 1504 1502 1501 1500 1498 1496 1496 1493 1492 1494 1496 1501 1508 1509 1508 1508 1509 1512 1516 1522 1525 1525 1525 1528 1528 1521 1518 1524 1523 1519 1516 1504 1496 1496 1495 1494 1495 1493 1492 1492 1492 1492 1493 1494 1495 1496
1503 1503 1502 1502 1501 1501 1501 1502 1502 1502 1502 1501 1501 1499 1502 1508 1511 1513 1509 1504 1506 1505 1501 1500 1497 1496 1496 1494 1492 1492 1491 1491 1490 1490 1492 1494 1495 1495 1495 1496 1497 1499 1502 1505 1505 1500 1495 1493 1494 1494 1491 1490 1492 1498 1503 1505 1507 1508 1507 1509 1516 1524 1530 1529 1529 1533 1529 1519 1520 1525 1522 1516 1510 1499 1494 1494 1491 1490 1491 1490 1490 1490 1490 1491 1492 1493 1494 1495
1503 1502 1502 1501 1501 1501 1501 1501 1502 1502 1502 1501 1500 1501 1505 1510 1513 1513 1511 1508 1507 1504 1502 1501 1499 1496 1495 1494 1494 1492 1491 1491 1489 1490 1492 1493 1496 1495 1493 1494 1496 1497 1499 1504 1504 1500 1500 1495 1489 1489 1488 1486 1487 1489 1490 1495 1502 1504 1502 1505 1510 1514 1518 1520 1521 1521 1518 1516 1521 1525 1519 1509 1501 1493 1490 1490 1489 1488 1488 1487 1488 1488 1489 1490 1490 1492 1492 1493
1503 1502 1501 1501 1501 1501 1501 1501 1501 1501 1502 1501 1501 1505 1508 1511 1514 1514 1511 1508 1506 1504 1503 1502 1500 1497 1495 1494 1495 1492 1491 1491 1490 1491 1492 1493 1494 1492 1490 1490 1491 1495 1498 1502 1502 1501 1502 1495 1483 1482 1482 1481 1483 1482 1484 1491 1499 1504 1503 1504 1505 1501 1502 1512 1520 1518 1517 1518 1519 1517 1510 1502 1496 1491 1489 1490 1488 1487 1486 1486 1487 1487 1488 1489 1490 1490 1491 1491
1502 1501 1501 1501 1501 1501 1501 1501 1501 1502 1502 1501 1503 1508 1509 1510 1512 1512 1509 1507 1506 1506 1505 1502 1500 1500 1498 1496 1495 1494 1492 1492 1492 1493 1493 1494 1493 1489 1489 1486 1487 1490 1491 1495 1498 1497 1498 1491 1482 1482 1482 1479 1479 1479 1482 1486 1492 1502 1504 1499 1499 1498 1497 1508 1522 1527 1526 1520 1516 1515 1507 1499 1497 1490 1486 1488 1485 1485 1487 1486 1486 1487 1488 1489 1489 1489 1490 1490
1502 1501 1501 1500 1500 1501 1501 1501 1501 1502 1502 1502 1505 1509 1510 1509 1509 1509 1508 1506 1506 1506 1506 1506 1504 1503 1504 1503 1500 1497 1495 1494 1495 1494 1494 1495 1490 1486 1486 1483 1483 1485 1483 1486 1490 1489 1490 1488 1482 1481 1479 1478 1479 1480 1482 1482 1485 1496 1498 1493 1496 1500 1499 1503 1512 1523 1528 1522 1516 1515 1506 1498 1498 1492 1486 1487 1485 1484 1486 1485 1486 1487 1486 1487 1488 1488 1489 1489
1501 1501 1501 1501 1501 1501 1501 1501 1502 1502 1502 1504 1508 1509 1510 1509 1507 1508 1508 1506 1506 1506 1507 1510 1507 1505 1507 1508 1504 1500 1499 1498 1499 1497 1495 1494 1488 1484 1485 1483 1481 1483 1481 1483 1486 1485 1489 1489 1482 1478 1477 1477 1478 1481 1484 1484 1483 1486 1487 1487 1492 1497 1501 1504 1508 1511 1518 1520 1516 1513 1510 1504 1499 1492 1485 1484 1483 1482 1483 1484 1485 1485 1484 1485 1485 1486 1486 1486
1501 1501 1501 1501 1501 1501 1501 1502 1502 1502 1503 1507 1510 1510 1510 1510 1508 1508 1507 1506 1506 1506 1508 1509 1507 1506 1507 1507 1504 1501 1500 1500 1501 1500 1497 1496 1490 1485 1486 1486 1484 1484 1483 1485 1486 1484 1487 1488 1483 1478 1478 1479 1479 1481 1484 1485 1485 1486 1486 1488 1490 1491 1493 1499 1503 1502 1504 1512 1512 1508 1506 1499 1491 1486 1480 1478 1479 1479 1480 1481 1482 1482 1482 1482 1482 1483 1483 1483
1500 1501 1502 1502 1502 1502 1502 1502 1503 1503 1505 1509 1512 1511 1511 1510 1508 1508 1508 1507 1506 1506 1507 1508 1507 1507 1506 1503 1502 1501 1500 1499 1499 1500 1499 1496 1491 1488 1488 1488 1487 1485 1484 1484 1485 1484 1485 1488 1485 1481 1480 1481 1479 1478 1477 1477 1481 1485 1487 1488 1489 1490 1492 1494 1497 1498 1497 1502 1506 1505 1499 1487 1481 1481 1476 1472 1474 1475 1476 1478 1479 1479 1479 1479 1479 1479 1480 1481
1501 1502 1503 1503 1502 1503 1503 1503 1505 1506 1507 1511 1513 1512 1511 1510 1509 1509 1508 1507 1506 1505 1506 1506 1506 1506 1504 1503 1502 1501 1500 1499 1498 1499 1497 1494 1492 1490 1489 1488 1488 1487 1485 1485 1485 1484 1484 1486 1484 1482 1481 1478 1473 1470 1470 1470 1472 1475 1477 1480 1480 1483 1489 1492 1496 1497 1494 1495 1499 1501 1496 1481 1473 1475 1473 1470 1470 1471 1473 1475 1475 1476 1475 1475 1476 1476 1478 1479
1502 1503 1505 1503 1503 1503 1503 1505 1508 1509 1510 1512 1513 1512 1512 1510 1510 1510 1508 1507 1507 1505 1505 1505 1504 1504 1503 1502 1501 1500 1499 1498 1498 1497 1495 1492 1492 1490 1487 1487 1487 1486 1486 1486 1485 1483 1483 1483 1481 1479 1476 1474 1469 1467 1470 1469 1469 1471 1472 1474 1475 1476 1479 1484 1489 1492 1493 1495 1497 1499 1494 1478 1468 1470 1470 1467 1468 1469 1470 1471 1472 1472 1472 1472 1473 1474 1476 1476
1503 1505 1505 1504 1504 1504 1504 1507 1510 1511 1512 1513 1513 1512 1512 1511 1511 1510 1509 1509 1508 1506 1506 1505 1503 1504 1503 1503 1502 1501 1500 1498 1495 1494 1493 1491 1489 1487 1486 1486 1486 1486 1487 1487 1485 1483 1483 1482 1482 1479 1473 1469 1467 1467 1469 1468 1468 1470 1470 1471 1474 1474 1472 1474 1478 1482 1486 1489 1491 1496 1494 1477 1466 1469 1468 1467 1468 1468 1468 1469 1469 1469 1469 1470 1472 1472 1473 1474
1504 1505 1505 1505 1504 1504 1506 1509 1512 1513 1515 1514 1513 1512 1512 1511 1512 1511 1510 1510 1509 1508 1507 1506 1505 1504 1504 1504 1503 1501 1500 1499 1495 1492 1492 1492 1489 1487 1487 1487 1487 1487 1487 1487 1487 1488 1488 1484 1485 1487 1483 1477 1473 1471 1471 1469 1467 1467 1466 1468 1470 1469 1471 1474 1477 1481 1483 1481 1481 1487 1485 1472 1466 1468 1468 1467 1468 1467 1466 1467 1467 1467 1468 1468 1469 1470 1470 1471
1505 1505 1505 1506 1505 1504 1508 1512 1513 1514 1516 1516 1514 1513 1513 1512 1512 1512 1511 1510 1510 1509 1508 1507 1506 1505 1505 1504 1503 1501 1500 1499 1497 1494 1493 1493 1490 1487 1487 1487 1487 1487 1486 1485 1485 1489 1492 1489 1488 1492 1492 1487 1483 1478 1473 1472 1471 1468 1465 1465 1466 1468 1470 1472 1476 1480 1479 1478 1479 1477 1473 1468 1466 1466 1465 1465 1467 1465 1464 1465 1465 1466 1466 1466 1466 1467 1467 1468
1507 1507 1508 1508 1506 1507 1511 1513 1514 1515 1517 1517 1515 1515 1516 1515 1513 1511 1511 1510 1510 1509 1508 1508 1506 1506 1506 1505 1504 1503 1501 1499 1499 1498 1496 1495 1493 1489 1488 1488 1487 1486 1484 1483 1483 1485 1488 1488 1487 1488 1487 1484 1480 1476 1473 1473 1473 1468 1463 1462 1463 1466 1467 1469 1475 1477 1473 1476 1477 1468 1464 1465 1464 1464 1464 1463 1464 1464 1462 1463 1464 1464 1464 1464 1464 1464 1465 1465
1510 1513 1514 1513 1511 1511 1513 1514 1515 1516 1517 1517 1516 1516 1517 1517 1515 1512 1511 1510 1510 1509 1508 1508 1508 1508 1508 1507 1507 1506 1503 1501 1501 1499 1498 1497 1494 1491 1490 1488 1487 1485 1483 1483 1483 1483 1486 1486 1483 1481 1480 1477 1474 1472 1473 1476 1475 1469 1466 1463 1462 1464 1466 1467 1469 1466 1466 1474 1473 1463 1463 1464 1461 1462 1462 1460 1461 1461 1460 1461 1461 1461 1461 1461 1461 1461 1462 1462
1513 1516 1518 1518 1516 1516 1516 1516 1517 1517 1517 1517 1517 1517 1517 1518 1517 1515 1513 1511 1510 1510 1509 1509 1509 1510 1510 1511 1510 1507 1503 1502 1501 1499 1498 1497 1495 1494 1491 1487 1487 1485 1484 1486 1485 1485 1489 1488 1482 1481 1480 1476 1474 1474 1474 1477 1476 1471 1469 1466 1463 1463 1465 1463 1459 1456 1458 1463 1461 1457 1460 1459 1456 1459 1459 1457 1457 1457 1456 1457 1458 1458 1458 1458 1458 1459 1459 1460
1516 1518 1518 1519 1518 1518 1519 1518 1517 1518 1517 1517 1517 1518 1518 1518 1519 1518 1516 1513 1512 1511 1511 1511 1511 1510 1510 1510 1511 1508 1505 1504 1504 1502 1500 1499 1497 1497 1494 1489 1486 1484 1484 1487 1487 1487 1489 1486 1482 1484 1483 1478 1477 1476 1475 1475 1474 1470 1468 1468 1467 1467 1464 1457 1453 1453 1455 1453 1453 1457 1459 1454 1453 1456 1455 1453 1454 1454 1454 1455 1455 1455 1455 1455 1456 1456 1457 1458
1519 1520 1519 1519 1519 1519 1519 1518 1518 1518 1517 1517 1518 1518 1519 1519 1519 1519 1517 1515 1514 1512 1512 1513 1512 1511 1510 1509 1509 1508 1506 1506 1507 1506 1503 1503 1501 1498 1495 1490 1486 1484 1484 1485 1485 1487 1489 1485 1481 1482 1483 1479 1475 1473 1473 1474 1473 1471 1469 1468 1468 1468 1466 1459 1455 1455 1456 1454 1454 1459 1458 1452 1451 1453 1453 1452 1452 1453 1453 1453 1452 1453 1454 1454 1454 1455 1456 1457
1520 1520 1520 1520 1519 1520 1519 1518 1519 1518 1518 1518 1519 1519 1519 1519 1519 1519 1516 1513 1513 1513 1512 1512 1511 1510 1509 1508 1507 1506 1505 1505 1505 1503 1502 1502 1500 1497 1494 1490 1487 1486 1485 1483 1483 1484 1486 1484 1480 1481 1484 1478 1471 1472 1473 1472 1473 1473 1470 1465 1462 1463 1464 1461 1457 1456 1453 1450 1452 1455 1454 1450 1449 1450 1451 1450 1450 1451 1451 1450 1451 1452 1452 1453 1453 1454 1455 1455
1521 1521 1521 1520 1520 1521 1521 1520 1520 1519 1518 1519 1519 1519 1520 1518 1518 1518 1516 1512 1511 1511 1511 1511 1510 1510 1509 1507 1505 1504 1503 1502 1501 1499 1497 1496 1494 1492 1491 1488 1486 1486 1484 1482 1481 1481 1481 1481 1478 1480 1483 1476 1469 1470 1470 1470 1474 1471 1461 1455 1454 1456 1460 1460 1456 1454 1451 1448 1449 1451 1450 1446 1446 1448 1448 1447 1448 1449 1448 1448 1449 1450 1451 1452 1452 1453 1454 1454